Regional Weather Roundup
Issued by NWS Kansas City/Pleasant Hill, MO

Home | Current Version | Previous Version | Graphics & Text | Print | Product List | Glossary Off
Versions: 1 2 3 4 5 6 7 8 9 10 11 12 13 14 15 16 17 18 19 20 21 22 23 24 25 26 27 28 29 30 31 32 33 34 35 36 37 38 39 40 41 42 43 44 45 46 47 48 49 50

629
ASUS43 KEAX 241210
RWREAX

WEATHER ROUNDUP FOR EASTERN KANSAS AND NORTHWEST MISSOURI
NATIONAL WEATHER SERVICE KANSAS CITY/PLEASANT HILL MO
700 AM CDT WED AUG 24 2016

KSZ040-057-103>105-MOZ028-029-037-043-241300-
...KANSAS CITY METROPOLITAN AREA...

CITY           SKY/WX    TMP DP  RH WIND       PRES   REMARKS
K.C. INTL      MOCLDY    67  65  93 S14       29.96S
6HR MIN TEMP:  67; 6HR MAX TEMP:  80; 6HR PCP:  1.39;

K.C. DOWNTOWN  CLOUDY    70  66  87 SE8       29.96F
6HR MIN TEMP:  69; 6HR MAX TEMP:  82; 6HR PCP:  0.41;

LEES SUMMIT    CLOUDY    69  67  93 SE10      30.00F
6HR MIN TEMP:  69; 6HR MAX TEMP:  79; 6HR PCP:  0.14;

OLATHE - IXD   PTCLDY    69  66  90 SE10      29.99F
6HR MIN TEMP:  69; 6HR MAX TEMP:  78; 6HR PCP:  0.16;

OLATHE - OJC   CLOUDY    68  66  93 SE8       30.00F
6HR MIN TEMP:  68; 6HR MAX TEMP:  77; 6HR PCP:  0.09;

LAWRENCE       PTCLDY    68  66  93 SE9       29.96F

$$

MOZ001>008-011>017-020>025-030>033-038>040-044>046-053-054-241300-
...NORTHERN AND CENTRAL MISSOURI...

CITY           SKY/WX    TMP DP  RH WIND       PRES   REMARKS
ST. JOSEPH     CLOUDY    68  65  90 S6        29.93R
6HR MIN TEMP:  66; 6HR MAX TEMP:  79; 6HR PCP:  1.48;

MOSBY          PTSUNNY   68  68 100 SE8       29.96S
WHITEMAN AFB   PTCLDY    70  70 100 NE6       30.03S
6HR MIN TEMP:  71; 6HR MAX TEMP:  78; 6HR PCP:  0.02;

CLINTON        CLOUDY    75  72  88 S6        30.03R
SEDALIA        RAIN      74  71  91 N12G21    30.07R FOG
6HR MIN TEMP:  76; 6HR MAX TEMP:  79; 6HR PCP:  0.03;

WARSAW         NOT AVBL
CHILLICOTHE      N/A     71  66  84 S9        29.95R
6HR MIN TEMP:  70; 6HR MAX TEMP:  79; 6HR PCP:  0.44;

KIRKSVILLE     CLOUDY    72  68  87 W13G20    29.94R
6HR MIN TEMP:  71; 6HR MAX TEMP:  77; 6HR PCP:  0.10;


$$

MOZ041-047>049-056>058-063>065-088>090-097-241300-
...EASTERN AND SOUTHERN MISSOURI...

CITY           SKY/WX    TMP DP  RH WIND       PRES   REMARKS
ST. LOUIS INTL MOCLDY    77  72  84 S12       30.03F
6HR MIN TEMP:  75; 6HR MAX TEMP:  77;

SPIRIT OF STL  MOCLDY    76  73  91 S7        30.02S
COLUMBIA       CLOUDY    74  71  91 S10       30.03R
JEFFERSON CITY CLOUDY    76  71  85 SW6       30.03R
ROLLA          PTCLDY    74  71  91 S12       30.06R
OSAGE BEACH    CLEAR     78  71  79 SW15G22   30.05R
SPRINGFIELD    CLEAR     74  70  87 S14       30.07S
BRANSON        MOCLDY    75  72  88 SW5       30.13R
JOPLIN         MOCLDY    77  71  82 S13       30.04S
WEST PLAINS    CLEAR     75  71  87 S8        30.14S

$$

IAZ060-094-KSZ022-034>040-054-083-096-NEZ052-066-093-241300-
...KANSAS...SOUTHEAST NEBRASKA AND IOWA...

CITY           SKY/WX    TMP DP  RH WIND       PRES   REMARKS
TOPEKA         PTCLDY    70  66  87 SE9       29.94F
6HR MIN TEMP:  69; 6HR MAX TEMP:  76;

MANHATTAN      CLOUDY    70  66  87 SE6       29.92F
EMPORIA        CLOUDY    74  70  87 S7        29.97R
CHANUTE        LGT RAIN  77  70  79 S12       29.99R
WICHITA        MOCLDY    74  68  81 S7        29.97R
OMAHA          MOCLDY    69  63  81 W5        29.92R
LINCOLN        CLOUDY    68  65  90 N7        29.96R
FALLS CITY     MOCLDY    66  65  96 SE3       29.92R
LAMONI         PTCLDY    63  63 100 NE3       29.94R
DES MOINES     PTCLDY    68  65  90 SW7       29.89R

$$





USA.gov is the U.S. government's official web portal to all federal, state and local government web resources and services.